Montreal, Quebec

3:52 AM EDT on June 24, 2017 (GMT -0400)
Montreal-Pierre Elliott Trudeau Int'l Airport

Weather History for CYUL - July, 2013

Change the Weather History Date:

Sunday, July 7, 2013

  Actual Average Record
Temperature  
Mean Temperature 74 °F -  
Max Temperature 79 °F 78 °F 93 °F (2010)
Min Temperature 68 °F 59 °F 51 °F (2000)
Cooling Degree Days 9    
Growing Degree Days 24 (Base 50)    
Moisture  
Dew Point 67 °F    
Average Humidity 79    
Maximum Humidity 94    
Minimum Humidity 65    
Precipitation  
Precipitation 0.31 in 0.12 in - ()
Sea Level Pressure  
Sea Level Pressure 29.95 in    
Wind  
Wind Speed 10 mph ()    
Max Wind Speed 17 mph    
Max Gust Speed -    
Visibility 13.1 miles    
Events Rain    
Averages and records for this station are not official NWS values.
T = Trace of Precipitation, MM = Missing Value Source: Averaged Metar Reports

Daily Weather History Graph

Daily Weather History Graph

Search for Another Location

Airport or City:

Trip Planner

Search our weather history database for the weather conditions in past years. The results will help you decide how hot, cold, wet, or windy it might be!

Date:

Astronomy

Jul. 07, 2013 Rise Set
Actual Time 5:14 AM EDT 8:45 PM EDT
Civil Twilight 4:37 AM EDT 9:22 PM EDT
Nautical Twilight 3:47 AM EDT 10:11 PM EDT
Astronomical Twilight 2:43 AM EDT 11:15 PM EDT
Moon 4:51 AM EDT (7/7) 8:03 PM EDT (7/7)
Length of Visible Light 16h 45m
Length of Day
15h 30m
Waning Crescent, 0% of the Moon is Illuminated
Jul 7
Waning Crescent
Jul 8
New
Jul 15
First Quarter
Jul 22
Full
Jul 29
Last Quarter

Hourly Weather History & Observations

Time (EDT) Temp. Dew Point Humidity Pressure Visibility Wind Dir Wind Speed Gust Speed Precip Events Conditions
12:00 AM 75.2 °F 62.6 °F 65% 29.98 in 15.0 mi WSW 17.3 mph - N/A   Partly Cloudy
1:00 AM 73.4 °F 62.6 °F 69% 29.97 in 15.0 mi WSW 12.7 mph - N/A   Mostly Cloudy
2:00 AM 72 °F 63 °F 66% 29.97 in 15 mi WSW 13.8 mph - -   Clear
2:00 AM 71.6 °F 62.6 °F 73% 29.97 in 15.0 mi WSW 13.8 mph - N/A   Clear
3:00 AM 71.6 °F 62.6 °F 73% 29.97 in 15.0 mi SW 8.1 mph - N/A   Scattered Clouds
4:00 AM 69.8 °F 64.4 °F 83% 29.96 in 15.0 mi SSW 8.1 mph - N/A   Mostly Cloudy
5:00 AM 69.8 °F 64.4 °F 83% 29.95 in 15.0 mi SW 10.4 mph - N/A   Mostly Cloudy
6:00 AM 69.8 °F 64.4 °F 83% 29.96 in 15.0 mi WSW 10.4 mph - N/A   Mostly Cloudy
7:00 AM 69.8 °F 64.4 °F 83% 29.97 in 15.0 mi West 8.1 mph - N/A   Overcast
8:00 AM 73 °F 65 °F 71% 29.98 in 15 mi West 6.9 mph - -   Scattered Clouds
8:00 AM 73.4 °F 66.2 °F 78% 29.98 in 15.0 mi WSW 6.9 mph - N/A   Mostly Cloudy
9:00 AM 73.4 °F 66.2 °F 78% 29.98 in 15.0 mi SW 5.8 mph - N/A   Mostly Cloudy
10:00 AM 75.2 °F 66.2 °F 73% 29.98 in 12.0 mi SSW 6.9 mph - N/A   Mostly Cloudy
11:00 AM 75.2 °F 68.0 °F 78% 29.97 in 12.0 mi SSW 12.7 mph - N/A   Mostly Cloudy
12:00 PM 77.0 °F 68.0 °F 74% 29.96 in 12.0 mi SW 11.5 mph - N/A   Mostly Cloudy
1:00 PM 78.8 °F 66.2 °F 65% 29.96 in 15.0 mi SW 11.5 mph - N/A   Mostly Cloudy
2:00 PM 78 °F 69 °F 67% 29.95 in 15 mi SSW 16.1 mph - -   Overcast
2:00 PM 77.0 °F 69.8 °F 78% 29.95 in 15.0 mi SW 17.3 mph - N/A   Overcast
2:24 PM 77.0 °F 69.8 °F 78% 29.95 in 15.0 mi SSW 16.1 mph - N/A Rain Light Rain Showers
3:00 PM 77.0 °F 69.8 °F 78% 29.94 in 12.0 mi SW 15.0 mph - N/A Rain Light Rain Showers
4:00 PM 75.2 °F 69.8 °F 83% 29.93 in 12.0 mi SW 12.7 mph - N/A Rain Light Rain Showers
5:00 PM 75.2 °F 69.8 °F 83% 29.92 in 12.0 mi WSW 8.1 mph - N/A   Overcast
5:20 PM 75.2 °F 68.0 °F 78% 29.91 in 12.0 mi WSW 10.4 mph - N/A Rain Light Rain Showers
5:43 PM 75.2 °F 68.0 °F 78% 29.92 in 12.0 mi SW 9.2 mph - N/A   Overcast
6:00 PM 75.2 °F 68.0 °F 78% 29.93 in 12.0 mi West 9.2 mph - N/A Rain Light Rain Showers
7:00 PM 73.4 °F 68.0 °F 83% 29.93 in 12.0 mi WSW 9.2 mph - N/A Rain Light Rain Showers
7:46 PM 73.4 °F 68.0 °F 83% 29.93 in 12.0 mi WSW 6.9 mph - N/A   Overcast
8:00 PM 73 °F 69 °F 82% 29.94 in 12 mi West 5.8 mph - - Rain Light Rain Showers
8:00 PM 73.4 °F 68.0 °F 83% 29.94 in 12.0 mi WSW 6.9 mph - N/A   Overcast
8:13 PM 71.6 °F 69.8 °F 94% 29.94 in 12.0 mi SSW 10.4 mph - N/A Rain Light Rain Showers
8:30 PM 69.8 °F 66.2 °F 88% 29.93 in 12.0 mi South 9.2 mph - N/A Rain Light Rain Showers
9:00 PM 69.8 °F 66.2 °F 88% 29.94 in 10.0 mi SSW 6.9 mph - N/A Rain Light Rain Showers
10:00 PM 69.8 °F 66.2 °F 88% 29.96 in 10.0 mi NW 4.6 mph - N/A Rain Light Rain Showers
11:00 PM 68.0 °F 66.2 °F 94% 29.96 in 6.0 mi NNW 2.3 mph - N/A Rain Light Rain Showers